Find Starlink 32351

NORAD ID: 61529 Int'l Des: 2024-183 Owner: SPXS Country: US Constellation: starlink operational
LEOCIRCULAR

Current View

Loading 3D Globe...

About Starlink 32351

Starlink 32351 (NORAD 61529) is a starlink constellation satellite (v2 mini) launched Oct 15, 2024 by SPXS of US. It operates in LEO, CIRCULAR orbit with a mass of 730.00 kg.

Upcoming Passes

Passes for default location (London). Set your location on the main map for personalized predictions.

Altitude History

Loading altitude history...

Two-Line Element Set

1 61529U 24183W 26255.26815497 -.00001337 00000-0 -28431-4 0 9991
2 61529 53.1609 351.9072 0001311 85.8060 274.3092 15.34401781108278
Epoch: Sep 12, 2026 • Age: 14 hours

Current Status

Altitude 466.0 km
Apogee / Perigee N/A
Velocity 7.64 km/s
Sub-Earth Point 42.30°N, 88.66°E
Launch Date Oct 15, 2024
Age 1.9 years
Type internet

Technical Details

Classification Payload
Mass 730.00 kg
Dry Mass 700.00 kg
Total Mass 730.00 kg
Length 0.30 m
Diameter 4.10 m
Span 29.00 m
Shape Box + pan
Manufacturer SPXS
Bus Type Starlink V2M
Phase Status In Orbit
Owner/State SPXS/US

Most Searched